ATLAS 5 CENTAUR DEB, 49356

Orbit data source: Space-Track

ATLAS 5 CENTAUR DEB, 49356 is space debris in HEO originally from a launch on Wed, 17 Oct 2018 UTC launched from the Air Force Eastern Test Range (AFETR). Debris objects in space refer to the collection of defunct objects orbiting the Earth. Examples of debris include non-operational satellites, rocket bodies, and fragments generated from explosions, collisions, or faulty payload assembly.

Loading next visibility...
Identifier
49356, 2018-079FH
Orbit
HEO
Country
Flag of USUS
Related business
Flag of USUnited Launch Alliance/Lockheed Martin (US)
Manufacturer
ULA Decatur
Mission
Spacecraft
Bus & Motor
Unknown
Mass
Unknown
Launch date (UTC)
2018-10-17 (8 years ago)
Launch vehicle
Unknown
Launch site
Air Force Eastern Test Range (AFETR)
Object type
Payload
Rocket body
Debris
Shape & HBR
Unknown shape, 1.1 m
Radar Cross Section
RCS unknown

Expand to show TLE details & history
Last TLE update: 6 days ago

TLE from 6 days ago
0 ATLAS 5 CENTAUR DEB
1 49356U 18079FH  26167.88502948 -.00000105  00000-0  00000-0 0  9995
2 49356  13.3144  44.6783 4641709 293.5507  24.9629  1.78466813 31289
Epoch: 2026-06-16T21:14Z
TLE epoch observation values (Epoch: 2026-06-16T21:14:26.547Z)
Latitude
0.00009°
Longitude
-179.12328°
Altitude
12,658.526 km
Speed
5.291 km/s
True Right ascension
02h 58m 33s
True Declination
0° 00' 00"
Sunlit
Object was in daylight at epoch
Visualization orbit readout
Latitude
Unknown
Longitude
Unknown
Altitude
Unknown
Speed
Unknown
Apparent Right ascension
Unknown
Apparent Declination
Unknown
Sunlit
N/A
Visualization observer readout
Local Sidereal Time
21:38:12
Azimuth
Unknown
Elevation
Unknown
Doppler factor
Unknown
Orbital elements
Apogee altitude
35,660.92 km
Perigee altitude
9,006.509 km
Semi-major axis
28,711.852 km
Eccentricity
0.46417
Inclination
13.3144°
RAAN
44.6783°
Arg. of periapsis
293.5507°
True anomaly
66.34435°
Mean anomaly
24.9629°
Eccentric anomaly
43.15231°
Mean motion
0.44612 °/min
Orbital period
806.96 mins
BSTAR
0
Loading maneuver chart data...
Computing Atmospheric mass density...

Documentation

Showing up to 5 results
|